Blackpool, United Kingdom

5:43 PM BST on August 24, 2016 (GMT +0100)
Blackpool

Weather History for EGNH - November, 2012

Change the Weather History Date:

Friday, November 23, 2012

  Actual Average Record
Temperature  
Mean Temperature 46 °F -  
Max Temperature 48 °F 44 °F 53 °F (2011)
Min Temperature 45 °F 38 °F 26 °F (2013)
Degree Days  
Heating Degree Days 18    
Moisture  
Dew Point 41 °F    
Average Humidity 78    
Maximum Humidity 87    
Minimum Humidity 67    
Precipitation  
Precipitation 0.01 in - - ()
Sea Level Pressure  
Sea Level Pressure 29.78 in    
Wind  
Wind Speed 15 mph ()    
Max Wind Speed 22 mph    
Max Gust Speed -    
Visibility 6.2 miles    
Events Rain    
Averages and records for this station are not official NWS values.
T = Trace of Precipitation, MM = Missing Value Source: Averaged Metar Reports

Daily Weather History Graph

Daily Weather History Graph

Search for Another Location

Airport or City:

Trip Planner

Search our weather history database for the weather conditions in past years. The results will help you decide how hot, cold, wet, or windy it might be!

Date:

Astronomy

Nov. 23, 2012 Rise Set
Actual Time 7:54 AM GMT 4:02 PM GMT
Civil Twilight 7:13 AM GMT 4:43 PM GMT
Nautical Twilight 6:29 AM GMT 5:27 PM GMT
Astronomical Twilight 5:47 AM GMT 6:09 PM GMT
Moon 1:44 PM GMT (11/23) 2:20 AM GMT (11/23)
Length of Visible Light 9h 30m
Length of Day
8h 08m
Waxing Gibbous, 78% of the Moon is Illuminated
Nov 23
Waxing Gibbous
Nov 28
Full
Dec 6
Last Quarter
Dec 13
New
Dec 20
First Quarter

Hourly Weather History & Observations

Time (GMT) Temp. Windchill Dew Point Humidity Pressure Visibility Wind Dir Wind Speed Gust Speed Precip Events Conditions
2:50 AM 47 °F - 42 °F 77%  in - WSW 21.9 mph - -  
5:50 AM 47 °F - 39 °F 67%  in - West 20.7 mph - -  
5:50 AM 48.2 °F - 41.0 °F 76% 29.65 in 6.2 mi West 19.6 mph - N/A   Partly Cloudy
6:20 AM 48.2 °F - 42.8 °F 82% 29.65 in 6.2 mi West 18.4 mph - N/A   Partly Cloudy
7:20 AM 46.4 °F 39.2 °F 41.0 °F 81% 29.68 in 6.2 mi WSW 18.4 mph - N/A   Scattered Clouds
7:50 AM 46.4 °F 39.5 °F 41.0 °F 81% 29.71 in 6.2 mi WSW 17.3 mph - N/A   Scattered Clouds
8:20 AM 46.4 °F 40.1 °F 41.0 °F 81% 29.71 in 6.2 mi WSW 15.0 mph - N/A   Partly Cloudy
8:50 AM 47 °F - 40 °F 69%  in - WSW 16.1 mph - -  
8:50 AM 48.2 °F - 41.0 °F 76% 29.74 in 6.2 mi WSW 16.1 mph - N/A   Partly Cloudy
9:20 AM 48.2 °F - 41.0 °F 76% 29.74 in 6.2 mi SW 13.8 mph - N/A   Partly Cloudy
9:50 AM 48.2 °F - 42.8 °F 82% 29.74 in 6.2 mi SW 12.7 mph - N/A   Partly Cloudy
10:20 AM 46.4 °F 41.5 °F 42.8 °F 87% 29.77 in 6.2 mi SSW 10.4 mph - N/A   Partly Cloudy
10:50 AM 46.4 °F 41.1 °F 42.8 °F 87% 29.77 in 6.2 mi South 11.5 mph - N/A   Partly Cloudy
11:20 AM 46.4 °F 40.1 °F 41.0 °F 81% 29.77 in 6.2 mi SSW 15.0 mph - N/A   Scattered Clouds
11:50 AM 47 °F - 43 °F 81%  in - SSW 16.1 mph - -  
12:50 PM 48.2 °F - 41.0 °F 76% 29.77 in 6.2 mi SSW 17.3 mph - N/A   Scattered Clouds
1:20 PM 48.2 °F - 42.8 °F 82% 29.77 in 6.2 mi SSW 15.0 mph - N/A Rain Light Rain Showers
1:50 PM 50.0 °F - 42.8 °F 76% 29.77 in 6.2 mi SSW 16.1 mph - N/A   Scattered Clouds
2:20 PM 48.2 °F - 42.8 °F 82% 29.77 in 6.2 mi SSW 17.3 mph - N/A Rain Light Rain Showers
2:50 PM 47 °F - 42 °F 76%  in - SSW 19.6 mph - -  
2:50 PM 48.2 °F - 42.8 °F 82% 29.80 in 6.2 mi SSW 17.3 mph - N/A   Scattered Clouds
3:20 PM 46.4 °F 40.1 °F 42.8 °F 87% 29.80 in 6.2 mi SSW 15.0 mph - N/A   Scattered Clouds
3:50 PM 46.4 °F 40.1 °F 41.0 °F 81% 29.80 in 6.2 mi SW 15.0 mph - N/A   Scattered Clouds
4:20 PM 48.2 °F - 41.0 °F 76% 29.80 in 6.2 mi WSW 13.8 mph - N/A   Mostly Cloudy
4:50 PM 48.2 °F - 41.0 °F 76% 29.80 in 6.2 mi WSW 15.0 mph - N/A   Scattered Clouds
5:20 PM 48.2 °F - 41.0 °F 76% 29.83 in 6.2 mi WSW 15.0 mph - N/A   Scattered Clouds
5:50 PM 47 °F - 40 °F 69%  in - SW 18.4 mph - -  
5:50 PM 46.4 °F 39.5 °F 41.0 °F 81% 29.83 in 6.2 mi WSW 17.3 mph - N/A   Scattered Clouds
6:20 PM 48.2 °F - 41.0 °F 76% 29.83 in 6.2 mi WSW 16.1 mph - N/A   Scattered Clouds
6:50 PM 48.2 °F - 41.0 °F 76% 29.83 in 6.2 mi WSW 17.3 mph - N/A   Partly Cloudy
7:20 PM 48.2 °F - 41.0 °F 76% 29.86 in 6.2 mi WSW 18.4 mph - N/A   Partly Cloudy
7:50 PM 48.2 °F - 39.2 °F 71% 29.86 in 6.2 mi WSW 18.4 mph - N/A   Scattered Clouds
8:20 PM 48.2 °F - 41.0 °F 76% 29.89 in 6.2 mi West 15.0 mph - N/A   Partly Cloudy
8:50 PM 45 °F - 38 °F 69%  in - SW 17.3 mph - -  
8:50 PM 46.4 °F 40.4 °F 39.2 °F 76% 29.89 in 6.2 mi SW 13.8 mph - N/A Rain Light Rain Showers
11:50 PM 45 °F - 38 °F 69%  in - West 10.4 mph - -